Location: Nashville
(36.1660°N, 86.7840°W)
Time: 23:27:40
(UTC-05:00)

Vanguard 2 - Visible Passes

Search period start: 25 June 2022 00:00
Search period end: 05 July 2022 00:00
Orbit: 552 x 2934 km, 32.9° (Epoch: 25 June)

Date Brightness Start Highest point End Pass type
(mag) Time Alt. Az. Time Alt. Az. Time Alt. Az.
25 Jun 7.5 21:44:37 10° WSW 21:50:00 47° S 21:51:37 32° ESE visible
26 Jun 7.2 22:01:51 10° WSW 22:07:15 55° S 22:08:14 44° SE visible
27 Jun 7.1 22:19:11 10° WSW 22:24:30 58° S 22:24:45 57° SSE visible
28 Jun 8.1 20:26:13 10° WSW 20:33:33 49° S 20:38:17 10° E visible
28 Jun 7.4 22:36:33 10° W 22:41:12 53° SW 22:41:12 53° SW visible
29 Jun 7.9 20:43:28 10° WSW 20:50:49 57° S 20:55:32 10° E visible
29 Jun 8.1 22:53:56 10° W 22:57:36 38° WSW 22:57:36 38° WSW visible
30 Jun 7.8 21:00:50 10° WSW 21:08:05 63° S 21:12:36 11° E visible
30 Jun 8.8 23:11:21 10° W 23:13:58 25° WSW 23:13:58 25° WSW visible
01 Jul 7.7 21:18:15 10° W 21:25:22 64° S 21:28:56 18° ESE visible
01 Jul 9.4 23:28:50 10° W 23:30:17 17° WSW 23:30:17 17° WSW visible
02 Jul 7.7 21:35:43 10° W 21:42:36 61° S 21:45:13 26° ESE visible
02 Jul 9.9 23:46:29 10° W 23:46:35 10° W 23:46:35 10° W visible
03 Jul 7.8 21:53:10 10° W 21:59:49 54° SSW 22:01:30 36° SE visible
04 Jul 7.8 22:10:41 10° W 22:16:57 44° SSW 22:17:46 41° S visible
